Location: Rockland
(38.6521°N, 119.0943°W)
Time: 07:19:22
(UTC+00:00)

Daily predictions for brighter satellites

Satellite Brightness Start Highest point End
(mag) Time Altitude Azimuth Time Altitude Azimuth Time Altitude Azimuth
Cosmos 1484 Rocket 4.4 12:02:48 10° NNE 12:06:18 33° E 12:09:43 10° SSE
Lacrosse 4 Rocket 3.6 12:14:58 14° N 12:14:58 14° N 12:15:44 10° N
Cosmos 1833 Rocket 2.5 12:17:49 52° SW 12:19:09 73° WNW 12:24:50 10° NNE
Cosmos 44 Rocket 3.3 12:25:06 49° NW 12:26:28 75° WSW 12:31:38 10° SSE
Lacrosse 5 rocket 2.5 12:29:12 27° N 12:29:12 27° N 12:31:21 10° NNE
Meteor 1-31 Rocket 3.7 12:27:02 10° NNE 12:30:52 49° E 12:34:40 10° S
ATLAS 3B R/B 2.5 12:26:50 23° SW 12:31:11 83° WNW 12:37:51 10° NNE
Meteor 1-24 Rocket 4.0 12:28:37 10° S 12:34:08 68° E 12:39:53 10° NNE
METEOR-M 4.5 12:30:17 10° NNE 12:35:36 66° E 12:40:54 10° S
USA 290 2.2 12:37:59 64° S 12:38:22 77° ESE 12:41:36 10° NNE
Cosmos 2369 3.9 12:32:47 10° NNW 12:38:27 72° ENE 12:44:04 10° SSE
Cosmos 2228 3.3 12:34:15 10° N 12:38:37 70° E 12:42:59 10° SSE
ISS -2.2 12:39:29 25° N 12:39:29 25° N 12:41:36 10° NNE
Cosmos 1992 Rocket 4.5 12:35:18 10° N 12:40:28 60° ENE 12:45:37 10° SSE
Cosmos 2082 Rocket 2.1 12:35:03 10° SSW 12:40:38 87° WNW 12:46:18 10° NNE
ADEOS Rocket 3.0 12:37:46 10° S 12:42:58 43° W 12:48:14 10° NNW
Cosmos 1656 3.9 12:41:10 29° NW 12:43:35 45° WSW 12:48:58 10° S
Cosmos 1606 Rocket 3.6 12:41:56 10° N 12:46:25 81° E 12:50:53 10° S
ALOS 2.1 12:45:32 10° N 12:50:11 70° WNW 12:54:49 10° SSW
ERS-2 2.1 12:47:55 10° S 12:51:29 55° W 12:53:32 23° NNW
COSMO-SKYMED 1 3.7 12:47:39 10° SE 12:51:47 46° ENE 12:55:57 10° N
SAR-Lupe-4 3.9 12:48:41 10° SSE 12:52:13 67° ENE 12:55:46 10° N
H-2A R/B 4.1 12:50:20 10° SSW 12:51:14 14° SW 12:51:14 14° SW
NOSS 8 (A) 4.4 12:52:52 13° SSW 12:56:02 75° ESE 12:59:04 10° NE
CZ-4B R/B 3.7 12:53:09 10° N 12:57:20 75° WNW 13:01:16 10° SSW
Cosmos 1400 Rocket 2.9 12:58:19 10° N 13:02:15 74° E 13:06:07 10° SSE
Cosmos 1092 Rocket 3.9 12:56:22 10° SSW 13:02:30 71° W 13:08:43 10° N
Meteor 2-5 Rocket 3.9 12:57:33 10° SSW 13:03:03 51° WNW 13:08:41 10° N
Cosmos 614 Rocket 4.4 12:58:08 10° S 13:03:14 66° ESE 13:08:19 10° NNE
COSMOS 2406 4.2 13:02:28 23° WNW 13:03:46 25° WNW 13:08:24 10° N
Cosmos 967 Rocket 4.4 12:57:38 10° NNW 13:03:58 88° WSW 13:10:13 10° SSE
Cosmos 2251 Rocket 3.5 12:59:05 10° SSW 13:04:22 60° WNW 13:09:40 10° N
Meteor 2-13 Rocket 4.5 13:00:56 10° SSW 13:06:57 56° W 13:12:59 10° N
Cosmos 1697 Rocket 2.8 13:01:42 10° NNW 13:07:13 55° WSW 13:12:43 10° S
Cosmos 220 Rocket 4.0 13:02:50 10° NNW 13:07:14 63° WSW 13:11:35 10° S
Nadezhda 4 Rocket 4.4 13:01:58 10° SW 13:07:35 38° WNW 13:13:15 10° N
SAR-Lupe-1 3.9 13:06:32 10° S 13:10:05 75° WSW 13:13:40 10° NNW
Okean 1-7 Rocket 3.6 13:09:18 10° S 13:13:52 87° W 13:18:25 10° N
CZ-2C R/B 3.8 13:11:16 10° NNW 13:14:27 17° WNW 13:14:35 17° WNW
deb Chang Zheng 4 3.9 13:10:39 10° N 13:14:37 40° WNW 13:18:36 10° SW
Cosmos 2084 3.5 13:12:30 10° SW 13:16:43 56° NW 13:21:03 10° NNE
FENGYUN 3A 4.0 13:12:23 10° N 13:17:27 41° WNW 13:22:32 10° SW
SL-14 R/B 4.2 13:16:00 10° SW 13:19:23 27° WNW 13:22:50 10° NNW
Cosmos 2058 Rocket 3.1 13:14:54 10° N 13:19:25 90° ENE 13:23:52 10° S
Cosmos 1300 3.0 13:18:49 10° NNW 13:22:26 41° W 13:26:01 10° SSW
H-2A R/B 4.1 13:20:22 10° NNE 13:24:28 40° E 13:28:24 10° S
Cosmos 1892 Rocket 3.8 13:21:06 10° SSW 13:25:13 43° W 13:29:24 10° N
SJ-12 4.1 13:24:02 10° N 13:28:01 49° WNW 13:31:57 10° SSW
Cosmos 1626 3.7 13:27:48 15° W 13:28:24 16° WNW 13:30:41 10° NW
Cosmos 1980 Rocket 2.1 13:24:11 10° NNW 13:29:45 69° WSW 13:35:17 10° SSE
Cosmos 1315 Rocket 3.7 13:29:08 10° N 13:33:11 55° ENE 13:37:14 10° SSE
CZ-4B R/B 2.9 13:32:13 10° SW 13:34:43 19° W 13:37:13 10° NW
Abrixas rocket 3.0 13:32:24 10° NW 13:35:03 36° NNE 13:37:43 10° E
Cosmos 2098 Rocket 4.0 13:29:20 10° S 13:35:44 77° E 13:40:53 10° N
CENTAUR R/B 4.3 13:32:44 10° WNW 13:36:21 15° NNW 13:40:15 10° N
Cosmos 2292 Rocket 4.0 13:34:17 10° SSE 13:37:11 47° E 13:40:31 10° NNE
SKYMED 2 3.8 13:35:38 10° S 13:39:50 48° W 13:44:02 10° NNW
Cosmos 1484 Rocket 4.4 13:38:06 10° NNW 13:40:24 15° WNW 13:42:40 10° WSW
Spot 2 4.3 13:37:58 10° NNE 13:42:35 89° W 13:47:26 10° SSW
SJ-7 4.5 13:40:18 10° NNE 13:44:19 82° ESE 13:48:17 10° S
OE (NEXTSAT) 4.3 13:40:55 10° WSW 13:44:25 84° NNW 13:47:55 10° ENE
H-2A R/B 2.7 13:41:48 10° N 13:45:38 83° WNW 13:49:28 10° SSW
Aureole 3 4.2 13:41:40 10° NNW 13:45:52 45° W 13:51:08 10° SSW
Meteor 2-8 Rocket 4.5 13:39:58 10° NNW 13:46:04 65° W 13:52:08 10° S
Envisat 3.6 13:43:48 10° NNE 13:48:52 65° ESE 13:53:53 10° S
Cosmos 407 Rocket 3.4 13:43:59 10° SSW 13:49:05 72° WNW 13:54:14 10° NNE
Cosmos 1626 Rocket 3.6 13:45:16 10° SSW 13:49:42 73° W 13:54:11 10° N
PSLV R/B 4.4 13:45:53 10° S 13:49:51 42° W 13:53:52 10° NNW
Cosmos 1602 Rocket 3.7 13:48:02 10° S 13:52:26 87° ESE 13:56:56 10° N
Cosmos 1689 Rocket 3.3 13:50:26 10° SSW 13:52:49 22° W 13:55:11 10° NW
Cosmos 1140 Rocket 3.4 13:48:26 10° SSW 13:53:34 82° WNW 13:58:43 10° NNE
SL-27 R/B 2.8 13:50:54 10° SSW 13:54:27 76° ESE 13:58:04 10° NNE
Okean O Rocket 3.1 13:51:28 10° NNE 13:55:37 43° E 13:59:46 10° S
Cosmos 1553 Rocket 4.0 13:51:56 10° NNW 13:57:59 67° W 14:03:58 10° S
